Location: ??????
(41.3794°N, 22.5014°E)
Time: 16:24:31
(UTC+00:00)

DEBRIS - Visible Passes

Search period start: 16 April 2021 00:00
Search period end: 26 April 2021 00:00
Orbit: 295 x 15213 km, 49.4° (Epoch: 15 April)

Date Brightness Start Highest point End Pass type
(mag) Time Alt. Az. Time Alt. Az. Time Alt. Az.
16 Apr 7.5 03:44:20 10° NW 05:03:30 48° WSW 05:17:51 10° S visible
16 Apr 9.0 15:35:10 10° SE 16:54:15 39° E 18:23:50 10° NE visible
16 Apr 9.0 20:19:17 10° SW 22:32:21 80° NNW 23:38:10 10° E visible
17 Apr 7.6 02:35:02 10° WNW 04:15:25 61° WSW 04:30:46 10° SSE visible
17 Apr 9.1 19:27:51 10° SW 21:23:19 86° NW 22:47:34 10° ENE visible
18 Apr 7.8 01:24:52 10° WNW 03:25:58 75° SW 03:43:08 10° SSE visible
18 Apr 9.2 18:37:44 10° SSW 20:18:43 86° SE 21:56:27 10° ENE visible
19 Apr 8.1 00:16:23 10° WNW 02:34:52 86° SW 02:55:01 10° SE visible
19 Apr 9.2 17:48:43 10° SSW 19:19:31 77° ESE 21:04:44 10° ENE visible
19 Apr 8.3 23:11:41 10° W 01:41:46 86° NNE 02:06:28 10° ESE visible
20 Apr 9.1 17:00:43 10° S 18:24:37 67° ESE 20:12:22 10° ENE visible
20 Apr 8.5 22:11:08 10° W 00:45:59 81° NNE 01:17:28 10° ESE visible
21 Apr 9.0 16:13:48 10° S 17:33:07 57° E 19:19:09 10° NE visible
21 Apr 8.6 21:14:02 10° WSW 23:46:19 78° N 00:28:00 10° E visible
22 Apr 9.0 15:28:16 10° SSE 16:44:19 46° E 18:24:54 10° NE visible
22 Apr 8.8 20:19:35 10° WSW 22:41:02 78° N 23:38:01 10° E visible
23 Apr 7.5 02:41:05 10° NW 04:12:21 50° WSW 04:28:26 10° S visible
23 Apr 9.0 19:27:06 10° SW 21:30:18 81° NNW 22:47:31 10° E visible
24 Apr 7.7 01:31:48 10° WNW 03:23:52 64° WSW 03:41:10 10° SSE visible
24 Apr 9.1 18:36:06 10° SW 20:20:44 88° NW 21:56:27 10° ENE visible
25 Apr 7.8 00:23:06 10° WNW 02:33:51 76° SW 02:53:21 10° SE visible
25 Apr 9.2 17:46:16 10° SSW 19:17:14 84° SE 21:04:46 10° ENE visible
